Location: Carrer del Canonge
(41.4901°N, 2.2931°E)
Time: 14:34:15
(UTC+00:00)

ATLAS 3B R/B - Pass Details

Date: 18 September 2020
Orbit: 1016 x 1179 km, 63.8° (Epoch: 28 October)

Event Time Altitude Azimuth Distance (km) Brightness Sun altitude
Rises 21:22:36 0° 327° (NNW) 3,836 6.5 -36.4°
Reaches altitude 10° 21:25:16 10° 332° (NNW) 2,900 5.7 -36.7°
Enters shadow 21:30:03 44° 358° (N) 1,474 3.5 -37.4°
